Stündliche Wetter Warora

Heute, 27 Oktober, Dienstag

Zeit Temperatur Niederschläge Wind Luftdruck Luftfeuchtigkeit
00:00 +27°C° 0 mm 1 m/S 741 mmHg 67%
01:00 +27°C° 0 mm 1 m/S 740 mmHg 67%
02:00 +26°C° 0 mm 1 m/S 740 mmHg 67%
03:00 +26°C° 0 mm 1 m/S 740 mmHg 69%
04:00 +26°C° 0 mm 1 m/S 740 mmHg 70%
05:00 +26°C° 0 mm 1 m/S 740 mmHg 71%
06:00 +26°C° 0 mm 1 m/S 741 mmHg 71%
07:00 +27°C° 0 mm 1 m/S 741 mmHg 70%
08:00 +25°C° 0 mm 0 m/S 742 mmHg 69%
09:00 +29°C° 0 mm 1 m/S 742 mmHg 64%
10:00 +31°C° 0 mm 1 m/S 741 mmHg 58%
11:00 +32°C° 0 mm 1 m/S 741 mmHg 53%
12:00 +32°C° 0 mm 1 m/S 741 mmHg 50%
13:00 +33°C° 0 mm 1 m/S 740 mmHg 46%
14:00 +33°C° 0 mm 1 m/S 739 mmHg 43%
15:00 +31°C° 0 mm 1 m/S 739 mmHg 48%
16:00 +30°C° 0 mm 1 m/S 740 mmHg 53%
17:00 +29°C° 0 mm 1 m/S 740 mmHg 58%
18:00 +28°C° 0 mm 1 m/S 740 mmHg 57%
19:00 +27°C° 0 mm 1 m/S 741 mmHg 57%
20:00 +24°C° 0 mm 0 m/S 741 mmHg 56%
21:00 +24°C° 0 mm 0 m/S 741 mmHg 57%
22:00 +24°C° 0 mm 0 m/S 741 mmHg 59%
23:00 +23°C° 0 mm 0 m/S 741 mmHg 60%

Morgen, 28 Oktober, Mittwoch

Zeit Temperatur Niederschläge Wind Luftdruck Luftfeuchtigkeit
00:00 +23°C° 0 mm 0 m/S 740 mmHg 62%
01:00 +22°C° 0 mm 0 m/S 740 mmHg 64%
02:00 +22°C° 0 mm 0 m/S 740 mmHg 66%
03:00 +21°C° 0 mm 0 m/S 740 mmHg 67%
04:00 +21°C° 0 mm 0 m/S 740 mmHg 68%
05:00 +21°C° 0 mm 0 m/S 740 mmHg 69%
06:00 +22°C° 0 mm 0 m/S 741 mmHg 66%
07:00 +25°C° 0 mm 1 m/S 742 mmHg 63%
08:00 +26°C° 0 mm 1 m/S 742 mmHg 61%
09:00 +28°C° 0 mm 1 m/S 742 mmHg 57%
10:00 +30°C° 0 mm 1 m/S 742 mmHg 53%
11:00 +31°C° 0 mm 1 m/S 742 mmHg 49%
12:00 +32°C° 0 mm 1 m/S 741 mmHg 46%
13:00 +32°C° 0 mm 1 m/S 740 mmHg 43%
14:00 +32°C° 0 mm 1 m/S 740 mmHg 40%
15:00 +31°C° 0 mm 1 m/S 740 mmHg 45%
16:00 +30°C° 0 mm 1 m/S 740 mmHg 50%
17:00 +28°C° 0 mm 1 m/S 740 mmHg 56%
18:00 +27°C° 0 mm 1 m/S 740 mmHg 56%
19:00 +25°C° 0 mm 0 m/S 741 mmHg 56%
20:00 +24°C° 0 mm 0 m/S 741 mmHg 57%
21:00 +23°C° 0 mm 0 m/S 741 mmHg 58%
22:00 +23°C° 0 mm 0 m/S 741 mmHg 60%
23:00 +23°C° 0 mm 0 m/S 741 mmHg 61%

übermorgen, 29 Oktober, Donnerstag

Zeit Temperatur Niederschläge Wind Luftdruck Luftfeuchtigkeit
00:00 +22°C° 0 mm 0 m/S 741 mmHg 62%
01:00 +22°C° 0 mm 0 m/S 740 mmHg 63%
02:00 +21°C° 0 mm 0 m/S 740 mmHg 64%
03:00 +21°C° 0 mm 0 m/S 740 mmHg 65%
04:00 +23°C° 0 mm 1 m/S 740 mmHg 66%
05:00 +22°C° 0 mm 1 m/S 740 mmHg 67%
06:00 +24°C° 0 mm 1 m/S 741 mmHg 64%
07:00 +25°C° 0 mm 1 m/S 742 mmHg 62%
08:00 +26°C° 0 mm 1 m/S 742 mmHg 59%
09:00 +28°C° 0 mm 1 m/S 742 mmHg 55%
10:00 +29°C° 0 mm 1 m/S 742 mmHg 51%
11:00 +31°C° 0 mm 1 m/S 742 mmHg 47%
12:00 +31°C° 0 mm 2 m/S 741 mmHg 46%
13:00 +32°C° 0 mm 2 m/S 740 mmHg 44%
14:00 +32°C° 0 mm 2 m/S 740 mmHg 42%
15:00 +31°C° 0 mm 1 m/S 740 mmHg 47%
16:00 +30°C° 0 mm 1 m/S 740 mmHg 52%
17:00 +28°C° 0 mm 1 m/S 740 mmHg 57%
18:00 +28°C° 0 mm 1 m/S 740 mmHg 57%
19:00 +27°C° 0 mm 1 m/S 741 mmHg 57%
20:00 +24°C° 0 mm 0 m/S 741 mmHg 58%
21:00 +26°C° 0 mm 1 m/S 741 mmHg 57%
22:00 +26°C° 0 mm 1 m/S 741 mmHg 56%
23:00 +26°C° 0 mm 1 m/S 741 mmHg 56%

30 Oktober, Freitag

Zeit Temperatur Niederschläge Wind Luftdruck Luftfeuchtigkeit
00:00 +26°C° 0 mm 1 m/S 741 mmHg 56%
01:00 +26°C° 0 mm 1 m/S 740 mmHg 55%
02:00 +25°C° 0 mm 2 m/S 740 mmHg 55%
03:00 +25°C° 0 mm 1 m/S 740 mmHg 56%
04:00 +25°C° 0 mm 1 m/S 740 mmHg 57%
05:00 +24°C° 0 mm 1 m/S 740 mmHg 58%
06:00 +25°C° 0 mm 1 m/S 741 mmHg 58%
07:00 +26°C° 0 mm 1 m/S 741 mmHg 58%
08:00 +27°C° 0 mm 1 m/S 742 mmHg 58%
09:00 +28°C° 0 mm 2 m/S 742 mmHg 54%
10:00 +29°C° 0 mm 2 m/S 742 mmHg 50%
11:00 +31°C° 0 mm 2 m/S 742 mmHg 46%
12:00 +31°C° 0 mm 2 m/S 741 mmHg 44%
13:00 +32°C° 0 mm 2 m/S 740 mmHg 42%
14:00 +32°C° 0 mm 2 m/S 740 mmHg 41%
15:00 +31°C° 0 mm 2 m/S 740 mmHg 46%
16:00 +29°C° 0 mm 2 m/S 740 mmHg 51%
17:00 +28°C° 0 mm 2 m/S 740 mmHg 56%
18:00 +27°C° 0 mm 1 m/S 740 mmHg 55%
19:00 +26°C° 0 mm 1 m/S 741 mmHg 55%
20:00 +26°C° 0 mm 1 m/S 741 mmHg 55%
21:00 +25°C° 0 mm 1 m/S 741 mmHg 54%
22:00 +25°C° 0 mm 1 m/S 741 mmHg 54%
23:00 +24°C° 0 mm 1 m/S 741 mmHg 54%

31 Oktober, Samstag

Zeit Temperatur Niederschläge Wind Luftdruck Luftfeuchtigkeit
00:00 +24°C° 0 mm 1 m/S 741 mmHg 55%
01:00 +24°C° 0 mm 1 m/S 740 mmHg 57%
02:00 +23°C° 0 mm 1 m/S 740 mmHg 58%
03:00 +23°C° 0 mm 1 m/S 740 mmHg 58%
04:00 +23°C° 0 mm 1 m/S 740 mmHg 59%
05:00 +23°C° 0 mm 1 m/S 740 mmHg 59%
06:00 +24°C° 0 mm 1 m/S 741 mmHg 58%
07:00 +25°C° 0 mm 1 m/S 742 mmHg 57%
08:00 +26°C° 0 mm 1 m/S 742 mmHg 56%
09:00 +28°C° 0 mm 2 m/S 742 mmHg 51%
10:00 +29°C° 0 mm 2 m/S 742 mmHg 47%
11:00 +31°C° 0 mm 2 m/S 742 mmHg 42%
12:00 +33°C° 0 mm 3 m/S 741 mmHg 41%
13:00 +33°C° 0 mm 3 m/S 740 mmHg 39%
14:00 +34°C° 0 mm 3 m/S 740 mmHg 37%
15:00 +31°C° 0 mm 2 m/S 740 mmHg 43%
16:00 +29°C° 0 mm 2 m/S 740 mmHg 48%
17:00 +28°C° 0 mm 1 m/S 740 mmHg 54%
18:00 +27°C° 0 mm 1 m/S 740 mmHg 53%
19:00 +26°C° 0 mm 1 m/S 741 mmHg 53%
20:00 +25°C° 0 mm 1 m/S 741 mmHg 53%
21:00 +25°C° 0 mm 1 m/S 741 mmHg 54%
22:00 +24°C° 0 mm 1 m/S 741 mmHg 54%
23:00 +24°C° 0 mm 1 m/S 741 mmHg 54%

1 November, Sonntag

Zeit Temperatur Niederschläge Wind Luftdruck Luftfeuchtigkeit
00:00 +23°C° 0 mm 1 m/S 741 mmHg 55%
01:00 +23°C° 0 mm 1 m/S 740 mmHg 55%
02:00 +21°C° 0 mm 2 m/S 740 mmHg 56%
03:00 +21°C° 0 mm 2 m/S 740 mmHg 56%
04:00 +21°C° 0 mm 2 m/S 740 mmHg 56%
05:00 +20°C° 0 mm 2 m/S 741 mmHg 56%
06:00 +23°C° 0 mm 2 m/S 741 mmHg 54%
07:00 +24°C° 0 mm 2 m/S 742 mmHg 53%
08:00 +25°C° 0 mm 2 m/S 742 mmHg 52%
09:00 +27°C° 0 mm 2 m/S 742 mmHg 49%
10:00 +29°C° 0 mm 2 m/S 742 mmHg 46%
11:00 +30°C° 0 mm 2 m/S 742 mmHg 42%
12:00 +31°C° 0 mm 2 m/S 741 mmHg 41%
13:00 +32°C° 0 mm 2 m/S 741 mmHg 40%
14:00 +32°C° 0 mm 2 m/S 740 mmHg 38%
15:00 +31°C° 0 mm 2 m/S 740 mmHg 43%
16:00 +29°C° 0 mm 2 m/S 740 mmHg 47%
17:00 +28°C° 0 mm 1 m/S 740 mmHg 51%
18:00 +27°C° 0 mm 1 m/S 741 mmHg 51%
19:00 +26°C° 0 mm 1 m/S 741 mmHg 51%
20:00 +25°C° 0 mm 1 m/S 741 mmHg 52%
21:00 +24°C° 0 mm 1 m/S 741 mmHg 52%
22:00 +24°C° 0 mm 1 m/S 741 mmHg 53%
23:00 +23°C° 0 mm 2 m/S 741 mmHg 54%
Mehr zeigen

Wir brauchen deine Erlaubnis

Meteoprog und unser Service Anbieter werden persönliche Daten aufbewahren, so wie Cookies, Geräte Bezeichnung oder ähnliche Technologien von deinem Gerät und Prozess, so wie Persönliche Daten Inhalte und Werbungen, genauso wie social Media und den Verkehr zu analysieren.

  • Aufbewahrung und/oder Zugang zu deiner Geräte Informationen.

    Cookies, Geräte Bezeichnung oder andere Informationen, können aufbewahrt oder Zugang zu deinem Gerät erhalten, für den Grund, der oben angegeben wird.

  • Personalisierte Werbung und Inhalte, Messungen, Einblick in das Publikum und Produkt Entwicklung.

    Werbungen und Inhalte können personalisiert werden, basierend auf ein Profil. Mehr Daten können besser personalisierte Werbungen und Inhalte hinzufügen. Werbung und Inhalte können gezeigt und gemessen werden. Einblicke über das Publikum, welche die Werbung gesehen haben und den Inhalt, können abgeleitet werden. So wie Daten können genutzt werden, um es zu verbessern oder die Benutzer Erfahrung zu verbessern das System und die Software.

Wenn du “Ich stimme zu” klickst, erlaubst du uns, die Cookies zu benutzen die Geräte Bezeichnung, den Web oder ähnliche Technologien zu benutzen. Deine Settings, können in deinem Gerät bei deinem Browser geändert werden.

Für den bestimmten Zweck, berechtigten Interessen beruhen darauf, mehr als auf den Inhalt. Du kannst mehr darüber in unseren Privaten und Cookie Politik lesen.